�N����,����,�~����,�C��,���x,�C��,����,���ϕ���,�ő�u�ԕ���,�ő厞����,���˗�,�I�_���x,�n�����x,�ő啗���N��,DTYPE
"20/07/15","00:10",0.0,21.3,91.9,994.4,333.0,1.1,2.1,342.1,0.00,20.0,23.0,"00:00:40",1
"20/07/15","00:20",0.0,21.2,92.3,994.1,317.5,1.0,1.9,324.4,0.00,19.9,23.1,"00:15:52",1
"20/07/15","00:30",0.0,21.1,92.4,994.4,320.7,1.2,1.8,340.6,0.00,19.9,23.0,"00:20:16",1
"20/07/15","00:40",0.0,21.2,92.7,994.4,304.2,0.8,2.0,330.7,0.00,20.0,22.9,"00:37:28",1
"20/07/15","00:50",0.0,21.4,92.9,994.1,317.1,1.6,2.5,343.2,0.00,20.2,22.9,"00:42:08",1
"20/07/15","01:00",0.0,21.4,93.1,994.1,328.3,1.3,2.0,316.5,0.00,20.3,22.9,"00:54:24",1
"20/07/15","01:10",0.0,21.4,93.2,994.1,319.0,1.2,1.7,347.6,0.00,20.3,22.9,"01:01:52",1
"20/07/15","01:20",0.0,21.4,93.3,994.1,313.9,1.2,1.6,317.9,0.00,20.3,22.7,"01:11:44",1
"20/07/15","01:30",0.0,21.3,93.5,994.1,298.9,1.0,2.1,324.1,0.00,20.2,22.9,"01:29:44",1
"20/07/15","01:40",0.0,21.4,93.5,993.9,312.2,1.1,1.6,313.5,0.00,20.3,22.9,"01:32:24",1
"20/07/15","01:50",0.0,21.5,93.6,993.9,312.5,1.0,1.3,323.1,0.00,20.5,22.8,"01:41:52",1
"20/07/15","02:00",0.0,21.5,93.7,993.9,43.7,0.5,1.9,324.9,0.00,20.5,22.8,"01:51:04",1
"20/07/15","02:10",0.0,21.5,93.7,994.4,287.2,0.6,1.0,268.1,0.00,20.5,22.7,"02:04:24",1
"20/07/15","02:20",0.0,21.5,93.8,994.1,290.1,0.8,1.7,322.9,0.00,20.5,22.8,"02:19:20",1
"20/07/15","02:30",0.0,21.5,93.9,994.1,286.8,1.3,2.4,248.2,0.00,20.5,22.9,"02:24:48",1
"20/07/15","02:40",0.0,21.7,93.5,993.9,295.7,1.3,2.7,334.1,0.00,20.6,22.8,"02:36:48",1
"20/07/15","02:50",0.0,21.9,93.5,994.4,271.5,1.5,2.2,246.1,0.00,20.8,22.6,"02:45:28",1
"20/07/15","03:00",0.0,21.9,93.0,994.1,253.0,1.2,2.6,229.9,0.00,20.8,22.7,"02:57:12",1
"20/07/15","03:10",0.0,22.2,92.8,994.6,266.6,1.2,1.9,240.6,0.00,21.0,22.9,"03:01:04",1
"20/07/15","03:20",0.0,22.1,92.3,994.4,263.1,1.3,2.0,250.2,0.00,20.8,22.7,"03:11:20",1
"20/07/15","03:30",0.0,22.1,91.8,993.9,254.2,1.3,2.1,244.2,0.00,20.7,22.7,"03:21:52",1
"20/07/15","03:40",0.0,22.2,91.2,994.4,267.8,1.3,2.7,238.8,0.00,20.7,22.7,"03:37:28",1
"20/07/15","03:50",0.0,22.2,90.7,994.4,288.0,1.6,2.7,314.5,0.00,20.6,22.8,"03:45:52",1
"20/07/15","04:00",0.0,22.3,90.0,994.1,281.8,1.2,2.2,327.7,0.00,20.6,22.8,"03:53:36",1
"20/07/15","04:10",0.0,22.2,89.5,994.4,277.9,1.3,2.1,252.2,0.00,20.4,22.7,"04:03:44",1
"20/07/15","04:20",0.0,22.2,89.0,994.4,287.2,1.3,2.7,301.1,0.00,20.3,22.7,"04:14:32",1
"20/07/15","04:30",0.0,22.2,88.6,994.4,295.4,1.0,1.7,338.6,0.00,20.3,22.7,"04:23:52",1
"20/07/15","04:40",0.0,22.1,88.4,994.8,261.5,0.6,1.1,156.3,0.00,20.1,22.7,"04:35:28",1
"20/07/15","04:50",0.0,22.0,88.2,995.3,264.1,0.6,1.3,267.3,0.00,20.0,22.6,"04:48:32",1
"20/07/15","05:00",0.0,22.1,88.3,995.3,259.1,0.8,1.9,245.0,0.00,20.1,22.6,"04:56:32",1
"20/07/15","05:10",0.0,22.2,88.2,994.8,263.3,1.3,2.6,262.5,0.00,20.2,22.7,"05:04:32",1
"20/07/15","05:20",0.0,22.3,87.9,995.3,277.2,1.2,2.5,245.6,0.00,20.2,22.5,"05:12:56",1
"20/07/15","05:30",0.0,22.4,87.7,995.3,306.6,1.2,2.0,264.8,0.00,20.3,22.7,"05:26:16",1
"20/07/15","05:40",0.0,22.3,87.5,995.3,283.9,1.3,2.9,236.8,0.00,20.2,22.6,"05:33:36",1
"20/07/15","05:50",0.0,22.4,87.3,995.3,321.5,1.1,2.0,331.1,0.00,20.2,22.8,"05:41:44",1
"20/07/15","06:00",0.0,22.3,87.3,995.3,319.1,1.1,1.6,307.0,0.00,20.1,22.6,"05:52:40",1
"20/07/15","06:10",0.0,22.4,87.3,995.3,321.9,1.2,2.1,325.3,0.00,20.2,22.6,"06:03:04",1
"20/07/15","06:20",0.0,22.3,87.5,995.6,286.1,0.7,1.6,301.0,0.01,20.2,22.6,"06:12:16",1
"20/07/15","06:30",0.0,22.4,87.4,995.3,252.6,1.1,4.7,215.6,0.01,20.2,22.6,"06:24:16",1
"20/07/15","06:40",0.0,22.6,87.3,995.8,252.0,0.3,0.9,252.0,0.02,20.4,22.6,"06:38:00",1
"20/07/15","06:50",0.0,22.7,87.0,995.8,242.8,1.0,1.7,243.2,0.03,20.5,22.6,"06:41:52",1
"20/07/15","07:00",0.0,22.8,86.8,996.0,244.1,1.1,2.1,239.1,0.04,20.5,22.7,"06:52:32",1
"20/07/15","07:10",0.0,22.9,86.4,996.0,214.2,1.0,1.7,230.3,0.04,20.5,22.7,"07:05:44",1
"20/07/15","07:20",0.0,22.9,85.9,996.0,226.7,1.2,2.8,235.8,0.04,20.5,22.6,"07:18:40",1
"20/07/15","07:30",0.0,23.1,85.4,996.3,245.9,1.3,2.7,211.6,0.04,20.6,22.6,"07:29:52",1
"20/07/15","07:40",0.0,23.1,85.1,996.0,240.0,1.6,2.8,232.2,0.05,20.5,22.8,"07:34:08",1
"20/07/15","07:50",0.0,23.4,84.7,995.8,260.0,1.5,2.9,240.2,0.08,20.7,22.7,"07:46:08",1
"20/07/15","08:00",0.0,23.4,84.1,996.0,272.8,1.2,2.9,297.6,0.06,20.6,22.8,"07:52:40",1
"20/07/15","08:10",0.0,23.5,83.8,996.0,272.7,1.1,2.7,253.3,0.08,20.6,22.9,"08:08:16",1
"20/07/15","08:20",0.0,23.6,83.8,996.0,271.0,1.0,2.4,298.3,0.08,20.7,22.8,"08:13:20",1
"20/07/15","08:30",0.0,23.5,83.8,996.3,291.7,0.8,2.0,332.4,0.04,20.6,23.0,"08:25:28",1
"20/07/15","08:40",0.0,23.4,84.2,996.3,293.7,0.8,1.8,303.2,0.06,20.6,23.1,"08:32:00",1
"20/07/15","08:50",0.0,23.2,84.6,996.5,303.3,1.0,3.1,340.5,0.04,20.5,22.9,"08:40:48",1
"20/07/15","09:00",0.0,23.3,84.8,996.5,273.4,1.1,1.9,314.4,0.06,20.6,23.1,"08:53:28",1
"20/07/15","09:10",0.0,23.3,85.3,996.3,250.5,1.2,2.5,228.6,0.07,20.7,23.1,"09:03:44",1
"20/07/15","09:20",0.0,23.5,85.4,996.3,237.4,1.3,3.3,234.9,0.14,20.9,23.1,"09:15:52",1
"20/07/15","09:30",0.0,23.9,85.0,996.3,280.7,1.1,2.4,234.8,0.17,21.3,23.2,"09:23:52",1
"20/07/15","09:40",0.0,24.1,84.3,996.3,274.8,1.1,2.1,330.5,0.14,21.3,23.0,"09:36:32",1
"20/07/15","09:50",0.0,24.3,83.5,996.0,293.7,1.0,2.0,333.6,0.12,21.4,23.4,"09:40:40",1
"20/07/15","10:00",0.0,24.0,83.0,996.3,241.1,1.2,3.3,227.1,0.06,21.0,23.3,"09:58:56",1
"20/07/15","10:10",0.0,23.9,83.2,996.0,229.1,1.8,3.6,231.0,0.06,20.9,23.3,"10:03:52",1
"20/07/15","10:20",0.0,24.0,83.3,995.8,246.3,1.5,3.3,223.6,0.11,21.0,23.4,"10:13:44",1
"20/07/15","10:30",0.0,24.2,82.7,996.0,243.6,1.7,3.3,234.7,0.14,21.1,23.6,"10:28:32",1
"20/07/15","10:40",0.0,24.7,82.4,995.8,262.1,1.5,3.1,231.3,0.20,21.5,23.3,"10:36:56",1
"20/07/15","10:50",0.0,25.2,80.5,995.8,263.5,1.1,2.5,228.3,0.20,21.6,23.5,"10:44:08",1
"20/07/15","11:00",0.0,25.1,79.4,995.8,273.9,1.1,2.8,341.7,0.13,21.3,23.4,"10:56:24",1
"20/07/15","11:10",0.0,24.9,79.0,995.8,298.5,1.7,3.6,320.4,0.12,21.0,23.8,"11:00:24",1
"20/07/15","11:20",0.0,25.0,79.5,995.8,306.5,1.1,2.6,348.2,0.15,21.2,23.7,"11:15:12",1
"20/07/15","11:30",0.0,25.6,79.2,995.3,272.9,0.8,1.6,337.6,0.24,21.8,23.8,"11:23:30",1
"20/07/15","11:40",0.0,25.6,78.0,995.6,329.3,1.2,3.2,348.9,0.20,21.5,23.7,"11:32:16",1
"20/07/15","11:50",0.0,25.9,76.9,995.1,300.5,1.2,3.3,1.8,0.25,21.6,23.9,"11:44:40",1
"20/07/15","12:00",0.0,26.5,75.7,994.8,290.5,1.2,3.5,349.1,0.41,21.9,24.1,"11:50:32",1
"20/07/15","12:10",0.0,26.0,74.7,995.1,271.4,1.1,2.2,217.5,0.17,21.2,24.2,"12:02:08",1
"20/07/15","12:20",0.0,25.9,74.7,994.8,332.3,1.2,2.6,348.6,0.15,21.1,24.5,"12:11:44",1
"20/07/15","12:30",0.0,25.9,74.9,994.8,324.4,1.0,2.0,354.5,0.08,21.1,24.3,"12:28:48",1
"20/07/15","12:40",0.2,25.6,76.0,995.3,277.0,1.0,2.4,314.6,0.06,21.1,24.5,"12:31:36",1
"20/07/15","12:50",0.4,24.8,79.4,995.1,235.3,1.0,1.9,217.2,0.05,21.0,24.5,"12:49:44",1
"20/07/15","13:00",0.0,24.7,82.2,995.3,279.1,1.0,2.2,344.0,0.11,21.5,24.5,"12:59:28",1
"20/07/15","13:10",0.2,24.4,84.0,995.6,325.7,1.2,3.7,349.0,0.10,21.6,24.4,"13:00:16",1
"20/07/15","13:20",0.0,24.9,85.0,995.6,325.9,0.6,2.2,329.2,0.23,22.2,24.5,"13:10:40",1
"20/07/15","13:30",0.0,25.3,84.7,995.6,304.7,0.7,2.4,342.5,0.29,22.6,24.6,"13:29:36",1
"20/07/15","13:40",0.0,26.1,84.6,995.1,315.5,1.1,2.9,349.9,0.46,23.3,24.6,"13:38:16",1
"20/07/15","13:50",0.0,26.0,80.5,995.1,239.4,1.2,2.6,264.6,0.27,22.4,24.7,"13:41:12",1
"20/07/15","14:00",0.0,26.1,79.4,995.1,257.8,1.1,2.8,228.4,0.20,22.3,24.9,"13:54:16",1
"20/07/15","14:10",0.0,25.5,78.9,995.1,260.7,1.5,2.9,222.7,0.09,21.6,24.8,"14:00:02",1
"20/07/15","14:20",0.0,25.0,80.0,995.6,268.2,1.3,2.6,290.0,0.09,21.3,24.9,"14:10:24",1
"20/07/15","14:30",0.0,24.6,82.0,995.6,273.2,1.5,3.6,276.2,0.13,21.4,24.9,"14:23:04",1
"20/07/15","14:40",0.4,23.9,83.9,995.3,275.8,1.3,4.5,316.9,0.07,21.1,24.7,"14:30:48",1
"20/07/15","14:50",0.0,23.7,85.7,995.6,296.5,1.1,2.2,309.1,0.08,21.2,24.8,"14:41:44",1
"20/07/15","15:00",0.2,23.7,86.8,995.8,339.8,1.0,2.6,351.0,0.09,21.4,24.7,"14:51:20",1
"20/07/15","15:10",0.0,23.9,87.4,995.6,327.1,0.8,1.9,340.5,0.09,21.7,24.7,"15:02:00",1
"20/07/15","15:20",0.0,23.8,87.8,995.8,319.8,1.1,2.7,332.6,0.09,21.7,24.7,"15:18:08",1
"20/07/15","15:30",0.0,24.0,88.1,995.8,300.5,1.0,2.0,333.3,0.09,21.9,24.7,"15:21:20",1
"20/07/15","15:40",0.0,24.0,88.0,995.6,272.3,1.0,2.0,261.9,0.07,21.9,24.6,"15:37:44",1
"20/07/15","15:50",0.0,24.1,88.3,995.6,283.3,1.0,2.5,262.0,0.09,22.1,24.5,"15:43:44",1
"20/07/15","16:00",0.0,24.7,88.1,995.6,268.7,1.1,2.5,314.6,0.21,22.6,24.7,"15:52:00",1
"20/07/15","16:10",0.0,24.8,87.2,995.6,308.8,1.2,2.8,338.1,0.14,22.6,24.7,"16:06:48",1
"20/07/15","16:20",0.0,25.2,86.4,995.3,329.5,1.6,3.7,342.9,0.19,22.8,24.7,"16:15:36",1
"20/07/15","16:30",0.0,25.3,84.7,995.3,317.0,1.5,2.9,309.5,0.15,22.6,24.7,"16:22:08",1
"20/07/15","16:40",0.0,25.6,83.3,995.3,291.2,0.8,1.8,265.3,0.12,22.6,24.7,"16:31:04",1
"20/07/15","16:50",0.0,25.5,82.2,995.3,302.7,1.0,2.0,329.0,0.09,22.3,25.0,"16:45:52",1
"20/07/15","17:00",0.0,25.2,81.4,995.3,301.7,1.1,2.7,346.2,0.06,21.8,24.9,"16:54:40",1
"20/07/15","17:10",0.0,24.9,80.7,995.6,290.4,1.0,2.0,326.7,0.03,21.4,24.8,"17:07:20",1
"20/07/15","17:20",0.0,24.5,80.5,995.6,272.5,1.2,2.2,252.9,0.02,21.0,24.9,"17:16:00",1
"20/07/15","17:30",0.0,24.4,80.8,995.6,311.1,1.3,2.4,306.3,0.02,20.9,24.8,"17:21:28",1
"20/07/15","17:40",0.0,24.2,80.9,995.8,277.6,1.0,2.0,299.5,0.03,20.8,24.8,"17:36:16",1
"20/07/15","17:50",0.0,24.3,80.6,996.3,288.2,0.8,1.8,325.0,0.03,20.8,24.6,"17:49:12",1
"20/07/15","18:00",0.0,24.3,80.4,996.3,299.9,0.8,2.0,319.5,0.02,20.7,24.7,"17:58:08",1
"20/07/15","18:10",0.0,24.2,80.4,996.3,310.0,0.8,2.2,345.5,0.00,20.7,24.5,"18:00:02",1
"20/07/15","18:20",0.0,24.1,80.6,996.5,321.6,1.0,1.9,344.5,0.00,20.6,24.6,"18:10:48",1
"20/07/15","18:30",0.0,24.0,81.5,996.7,338.7,1.0,1.9,328.9,0.00,20.7,24.5,"18:21:28",1
"20/07/15","18:40",0.0,23.8,82.7,996.7,324.1,0.8,1.9,321.1,0.00,20.7,24.3,"18:38:00",1
"20/07/15","18:50",0.0,23.6,83.6,997.0,345.6,0.8,1.7,330.3,0.00,20.7,24.3,"18:44:08",1
"20/07/15","19:00",0.0,23.0,84.3,997.2,314.6,1.5,2.7,324.3,0.00,20.2,24.4,"18:55:44",1
"20/07/15","19:10",0.0,22.9,84.3,997.4,305.0,1.3,2.4,341.9,0.00,20.2,24.4,"19:03:44",1
"20/07/15","19:20",0.0,22.8,83.9,997.4,306.1,1.3,2.1,333.4,0.00,20.0,24.1,"19:16:48",1
"20/07/15","19:30",0.0,22.8,84.0,997.4,322.7,1.0,1.7,353.6,0.00,20.0,24.2,"19:28:00",1
"20/07/15","19:40",0.0,22.6,84.6,997.4,328.1,1.0,1.4,331.0,0.00,19.9,24.2,"19:30:24",1
"20/07/15","19:50",0.0,22.2,85.2,997.2,304.3,1.2,2.2,329.2,0.00,19.6,24.2,"19:42:56",1
"20/07/15","20:00",0.0,22.2,85.8,997.4,351.7,0.6,1.4,312.5,0.00,19.7,23.9,"19:50:32",1
"20/07/15","20:10",0.0,22.0,86.6,997.9,324.4,0.6,1.6,347.2,0.00,19.7,23.9,"20:05:20",1
"20/07/15","20:20",0.0,21.9,86.9,997.9,344.4,0.6,1.2,307.4,0.00,19.7,24.0,"20:13:04",1
"20/07/15","20:30",0.0,21.9,87.4,997.9,299.6,0.8,2.1,320.0,0.00,19.8,23.8,"20:27:36",1
"20/07/15","20:40",0.0,21.7,88.0,998.4,344.7,0.8,1.4,300.7,0.00,19.7,23.5,"20:30:40",1
"20/07/15","20:50",0.0,21.5,88.5,998.4,352.1,1.0,1.7,339.7,0.00,19.6,23.8,"20:43:04",1
"20/07/15","21:00",0.0,21.3,88.8,998.6,329.9,1.2,1.9,328.0,0.00,19.4,23.6,"20:51:44",1
"20/07/15","21:10",0.0,21.2,89.2,998.6,336.6,1.2,2.1,345.0,0.00,19.4,23.7,"21:00:40",1
"20/07/15","21:20",0.0,21.0,89.5,998.6,309.8,0.8,1.8,310.0,0.00,19.2,23.6,"21:11:12",1
"20/07/15","21:30",0.0,21.2,89.9,998.9,356.4,0.5,0.8,312.5,0.00,19.5,23.6,"21:21:28",1
"20/07/15","21:40",0.0,21.2,90.0,998.9,329.1,0.6,1.3,332.1,0.00,19.5,23.6,"21:35:28",1
"20/07/15","21:50",0.0,21.2,90.2,998.9,320.2,1.1,2.6,332.1,0.00,19.6,23.7,"21:45:28",1
"20/07/15","22:00",0.0,21.0,90.6,999.1,335.9,0.8,1.3,347.3,0.00,19.4,23.5,"21:59:28",1
"20/07/15","22:10",0.0,21.0,90.7,998.9,324.3,1.0,1.6,331.6,0.00,19.5,23.4,"22:00:24",1
"20/07/15","22:20",0.0,20.9,91.0,999.1,302.2,0.8,1.6,325.9,0.00,19.4,23.4,"22:19:28",1
"20/07/15","22:30",0.0,20.9,91.2,999.3,343.3,1.0,1.6,345.9,0.00,19.5,23.2,"22:28:00",1
"20/07/15","22:40",0.0,20.9,91.3,999.3,327.9,1.0,1.6,318.3,0.00,19.5,23.4,"22:31:20",1
"20/07/15","22:50",0.0,20.9,91.5,999.3,320.7,0.7,1.3,327.7,0.00,19.5,23.2,"22:49:36",1
"20/07/15","23:00",0.0,21.0,91.5,999.3,328.2,1.0,1.7,320.7,0.00,19.6,23.3,"22:54:00",1
"20/07/15","23:10",0.0,21.0,91.7,999.3,321.9,0.8,1.8,324.7,0.00,19.6,23.3,"23:04:48",1
"20/07/15","23:20",0.0,21.0,91.7,999.6,323.2,0.8,1.6,326.4,0.00,19.6,23.2,"23:12:40",1
"20/07/15","23:30",0.0,21.1,91.8,999.3,328.4,1.0,1.6,315.5,0.00,19.8,23.2,"23:24:00",1
"20/07/15","23:40",0.0,21.0,91.7,999.6,333.2,1.2,2.2,333.6,0.00,19.6,23.0,"23:36:48",1
"20/07/15","23:50",0.0,21.1,91.6,999.6,325.9,1.3,2.7,319.3,0.00,19.7,23.0,"23:46:16",1
"20/07/15","24:00",0.0,21.1,91.3,999.3,322.5,0.8,1.9,340.7,0.00,19.7,23.1,"23:58:08",1
